EN

Hourly Weather Bolshie Kuliki

Today, 22 October, Thursday

Time Temperature Precipitation Wind Pressure Humidity
00:00 +2°C° 0 mm 2 mps 754 mmHg 90%
01:00 +2°C° 0 mm 2 mps 754 mmHg 91%
02:00 +2°C° 0 mm 2 mps 754 mmHg 92%
03:00 +2°C° 0 mm 2 mps 754 mmHg 92%
04:00 +2°C° 0 mm 2 mps 753 mmHg 91%
05:00 +3°C° 0 mm 2 mps 753 mmHg 90%
06:00 +3°C° 0 mm 2 mps 753 mmHg 89%
07:00 +2°C° 0 mm 3 mps 753 mmHg 88%
08:00 +3°C° 0 mm 3 mps 753 mmHg 86%
09:00 +3°C° 0 mm 3 mps 753 mmHg 84%
10:00 +4°C° 0 mm 3 mps 753 mmHg 81%
11:00 +5°C° 0 mm 3 mps 753 mmHg 78%
12:00 +5°C° 0 mm 3 mps 753 mmHg 75%
13:00 +5°C° 0 mm 3 mps 753 mmHg 75%
14:00 +7°C° 0 mm 3 mps 753 mmHg 76%
15:00 +7°C° 0 mm 3 mps 753 mmHg 76%
16:00 +5°C° 0 mm 3 mps 752 mmHg 78%
17:00 +5°C° 0 mm 3 mps 751 mmHg 80%
18:00 +5°C° 0 mm 3 mps 751 mmHg 82%
19:00 +5°C° 0.1 mm 4 mps 750 mmHg 82%
20:00 +5°C° 0.1 mm 4 mps 750 mmHg 83%
21:00 +5°C° 0.1 mm 4 mps 750 mmHg 83%
22:00 +5°C° 0.3 mm 5 mps 749 mmHg 85%
23:00 +5°C° 0.3 mm 5 mps 748 mmHg 87%

Tomorrow, 23 October, Friday

Time Temperature Precipitation Wind Pressure Humidity
00:00 +5°C° 0.3 mm 5 mps 747 mmHg 89%
01:00 +6°C° 0.1 mm 5 mps 747 mmHg 89%
02:00 +6°C° 0.1 mm 5 mps 746 mmHg 89%
03:00 +7°C° 0.1 mm 5 mps 746 mmHg 90%
04:00 +7°C° 0 mm 5 mps 745 mmHg 88%
05:00 +7°C° 0 mm 5 mps 745 mmHg 85%
06:00 +7°C° 0 mm 5 mps 744 mmHg 83%
07:00 +7°C° 0 mm 6 mps 744 mmHg 84%
08:00 +8°C° 0 mm 6 mps 744 mmHg 86%
09:00 +9°C° 0 mm 6 mps 744 mmHg 87%
10:00 +10°C° 0 mm 6 mps 745 mmHg 81%
11:00 +11°C° 0 mm 6 mps 745 mmHg 75%
12:00 +14°C° 0 mm 6 mps 745 mmHg 69%
13:00 +14°C° 0 mm 6 mps 745 mmHg 70%
14:00 +13°C° 0 mm 6 mps 745 mmHg 71%
15:00 +13°C° 0 mm 6 mps 745 mmHg 72%
16:00 +13°C° 0 mm 5 mps 745 mmHg 75%
17:00 +12°C° 0 mm 4 mps 745 mmHg 77%
18:00 +12°C° 0 mm 4 mps 745 mmHg 80%
19:00 +11°C° 0 mm 4 mps 745 mmHg 82%
20:00 +11°C° 0 mm 4 mps 745 mmHg 83%
21:00 +11°C° 0 mm 4 mps 744 mmHg 85%
22:00 +10°C° 0.3 mm 5 mps 743 mmHg 86%
23:00 +10°C° 0.3 mm 5 mps 743 mmHg 88%

Day after tomorrow, 24 October, Saturday

Time Temperature Precipitation Wind Pressure Humidity
00:00 +10°C° 0.3 mm 6 mps 742 mmHg 89%
01:00 +11°C° 1 mm 6 mps 742 mmHg 88%
02:00 +11°C° 1 mm 6 mps 742 mmHg 87%
03:00 +11°C° 1 mm 7 mps 742 mmHg 86%
04:00 +10°C° 0 mm 6 mps 742 mmHg 88%
05:00 +10°C° 0 mm 5 mps 742 mmHg 90%
06:00 +9°C° 0 mm 5 mps 742 mmHg 91%
07:00 +9°C° 0 mm 5 mps 743 mmHg 89%
08:00 +9°C° 0 mm 5 mps 743 mmHg 86%
09:00 +9°C° 0 mm 6 mps 744 mmHg 84%
10:00 +10°C° 0 mm 5 mps 745 mmHg 81%
11:00 +10°C° 0 mm 5 mps 745 mmHg 78%
12:00 +10°C° 0 mm 5 mps 745 mmHg 75%
13:00 +11°C° 0 mm 4 mps 746 mmHg 73%
14:00 +11°C° 0 mm 3 mps 746 mmHg 72%
15:00 +11°C° 0 mm 3 mps 746 mmHg 71%
16:00 +11°C° 0 mm 3 mps 746 mmHg 72%
17:00 +11°C° 0 mm 3 mps 746 mmHg 73%
18:00 +10°C° 0 mm 2 mps 746 mmHg 75%
19:00 +10°C° 0 mm 2 mps 747 mmHg 76%
20:00 +10°C° 0 mm 2 mps 747 mmHg 78%
21:00 +9°C° 0 mm 2 mps 747 mmHg 80%
22:00 +9°C° 0 mm 2 mps 747 mmHg 81%
23:00 +8°C° 0 mm 2 mps 747 mmHg 83%

, 25 October, Sunday

Time Temperature Precipitation Wind Pressure Humidity
00:00 +8°C° 0 mm 2 mps 747 mmHg 84%
01:00 +9°C° 0 mm 1 mps 746 mmHg 85%
02:00 +9°C° 0 mm 1 mps 746 mmHg 86%
03:00 +8°C° 0 mm 1 mps 746 mmHg 87%
04:00 +8°C° 0 mm 1 mps 746 mmHg 88%
05:00 +8°C° 0 mm 1 mps 745 mmHg 89%
06:00 +8°C° 0 mm 1 mps 745 mmHg 89%
07:00 +8°C° 0.2 mm 1 mps 745 mmHg 90%
08:00 +8°C° 0.2 mm 1 mps 744 mmHg 90%
09:00 +8°C° 0.2 mm 0 mps 744 mmHg 90%
10:00 +9°C° 1.2 mm 1 mps 744 mmHg 92%
11:00 +9°C° 1.2 mm 1 mps 743 mmHg 93%
12:00 +9°C° 1.2 mm 1 mps 743 mmHg 95%
13:00 +8°C° 0.8 mm 2 mps 743 mmHg 94%
14:00 +8°C° 0.8 mm 3 mps 743 mmHg 93%
15:00 +7°C° 0.8 mm 4 mps 743 mmHg 93%
16:00 +7°C° 0.3 mm 4 mps 744 mmHg 91%
17:00 +7°C° 0.3 mm 5 mps 744 mmHg 89%
18:00 +7°C° 0.3 mm 5 mps 745 mmHg 86%
19:00 +6°C° 0 mm 5 mps 746 mmHg 86%
20:00 +6°C° 0 mm 5 mps 746 mmHg 86%
21:00 +6°C° 0 mm 5 mps 747 mmHg 86%
22:00 +6°C° 0 mm 5 mps 747 mmHg 88%
23:00 +5°C° 0 mm 4 mps 748 mmHg 90%

25 October, Sunday

Time Temperature Precipitation Wind Pressure Humidity
00:00 +8°C° 0 mm 2 mps 747 mmHg 84%
01:00 +9°C° 0 mm 1 mps 746 mmHg 85%
02:00 +9°C° 0 mm 1 mps 746 mmHg 86%
03:00 +8°C° 0 mm 1 mps 746 mmHg 87%
04:00 +8°C° 0 mm 1 mps 746 mmHg 88%
05:00 +8°C° 0 mm 1 mps 745 mmHg 89%
06:00 +8°C° 0 mm 1 mps 745 mmHg 89%
07:00 +8°C° 0.2 mm 1 mps 745 mmHg 90%
08:00 +8°C° 0.2 mm 1 mps 744 mmHg 90%
09:00 +8°C° 0.2 mm 0 mps 744 mmHg 90%
10:00 +9°C° 1.2 mm 1 mps 744 mmHg 92%
11:00 +9°C° 1.2 mm 1 mps 743 mmHg 93%
12:00 +9°C° 1.2 mm 1 mps 743 mmHg 95%
13:00 +8°C° 0.8 mm 2 mps 743 mmHg 94%
14:00 +8°C° 0.8 mm 3 mps 743 mmHg 93%
15:00 +7°C° 0.8 mm 4 mps 743 mmHg 93%
16:00 +7°C° 0.3 mm 4 mps 744 mmHg 91%
17:00 +7°C° 0.3 mm 5 mps 744 mmHg 89%
18:00 +7°C° 0.3 mm 5 mps 745 mmHg 86%
19:00 +6°C° 0 mm 5 mps 746 mmHg 86%
20:00 +6°C° 0 mm 5 mps 746 mmHg 86%
21:00 +6°C° 0 mm 5 mps 747 mmHg 86%
22:00 +6°C° 0 mm 5 mps 747 mmHg 88%
23:00 +5°C° 0 mm 4 mps 748 mmHg 90%

26 October, Monday

Time Temperature Precipitation Wind Pressure Humidity
00:00 +5°C° 0 mm 4 mps 749 mmHg 92%
01:00 +4°C° 0 mm 4 mps 749 mmHg 91%
02:00 +4°C° 0 mm 4 mps 750 mmHg 91%
03:00 +3°C° 0 mm 3 mps 750 mmHg 90%
04:00 +3°C° 0 mm 3 mps 751 mmHg 90%
05:00 +3°C° 0 mm 3 mps 751 mmHg 90%
06:00 +2°C° 0 mm 3 mps 752 mmHg 90%
07:00 +3°C° 0 mm 3 mps 753 mmHg 86%
08:00 +3°C° 0 mm 3 mps 753 mmHg 83%
09:00 +3°C° 0 mm 3 mps 754 mmHg 80%
10:00 +5°C° 0 mm 3 mps 754 mmHg 74%
11:00 +7°C° 0 mm 3 mps 755 mmHg 68%
12:00 +8°C° 0 mm 2 mps 755 mmHg 62%
13:00 +8°C° 0 mm 2 mps 755 mmHg 62%
14:00 +8°C° 0 mm 2 mps 755 mmHg 62%
15:00 +8°C° 0 mm 2 mps 756 mmHg 62%
16:00 +7°C° 0 mm 2 mps 756 mmHg 68%
17:00 +7°C° 0 mm 1 mps 756 mmHg 73%
18:00 +6°C° 0 mm 1 mps 756 mmHg 78%
19:00 +6°C° 0 mm 1 mps 757 mmHg 80%
20:00 +6°C° 0 mm 1 mps 757 mmHg 82%
21:00 +5°C° 0 mm 1 mps 757 mmHg 84%
22:00 +5°C° 0 mm 1 mps 757 mmHg 85%
23:00 +4°C° 0 mm 0 mps 757 mmHg 86%

27 October, Tuesday

Time Temperature Precipitation Wind Pressure Humidity
00:00 +4°C° 0 mm 0 mps 758 mmHg 87%
01:00 +4°C° 0 mm 0 mps 758 mmHg 88%
02:00 +3°C° 0 mm 0 mps 758 mmHg 88%
03:00 +4°C° 0 mm 1 mps 758 mmHg 89%
04:00 +3°C° 0 mm 0 mps 758 mmHg 89%
05:00 +3°C° 0 mm 0 mps 759 mmHg 90%
06:00 +3°C° 0 mm 0 mps 759 mmHg 90%
07:00 +3°C° 0 mm 0 mps 759 mmHg 88%
08:00 +4°C° 0 mm 0 mps 759 mmHg 86%
09:00 +5°C° 0 mm 0 mps 759 mmHg 84%
10:00 +6°C° 0 mm 0 mps 759 mmHg 79%
11:00 +8°C° 0 mm 1 mps 759 mmHg 75%
12:00 +9°C° 0 mm 1 mps 760 mmHg 70%
13:00 +10°C° 0 mm 1 mps 760 mmHg 69%
14:00 +10°C° 0 mm 1 mps 760 mmHg 68%
15:00 +10°C° 0 mm 1 mps 760 mmHg 66%
16:00 +9°C° 0 mm 1 mps 760 mmHg 71%
17:00 +8°C° 0 mm 1 mps 759 mmHg 76%
18:00 +7°C° 0 mm 1 mps 759 mmHg 81%
19:00 +7°C° 0 mm 1 mps 759 mmHg 83%
20:00 +6°C° 0 mm 1 mps 759 mmHg 85%
21:00 +6°C° 0 mm 1 mps 759 mmHg 87%
22:00 +5°C° 0 mm 2 mps 760 mmHg 88%
23:00 +4°C° 0 mm 2 mps 760 mmHg 89%
Show more